User: anonymous   Login
Location: Young's Pond
(41.2695°N, 72.7766°W)
Time: 02:45:23
(UTC-04:00)
Language:

Spot 4 - Orbit

View from above orbital plane
View from above orbital plane
View from above satellite
View from above satellite

Ground track
Ground track

The orbit data is extracted from the following two-line orbital elements,

1 25260U 98017A   17208.95502780 -.00000022 +00000-0 +56209-5 0  9996
2 25260 098.3492 291.2075 0013733 144.1525 216.0596 14.53485935007774
Epoch (UTC): 27 July 2017 22:55:14
Eccentricity: 0.0013733
inclination: 98.3492°
perigee height: 704 km
apogee height: 724 km
right ascension of ascending node: 291.2075°
argument of perigee: 144.1525°
revolutions per day: 14.53485935
mean anomaly at epoch: 216.0596°
orbit number at epoch: 777

The dashed part of the orbit path shows where the satellite is in the earth's shadow,  

DLR